Theta_e
324 323 323 322 322 322 321 321 321 321 320 321 320 319 320 320 319 320 320 320 320 320 321 322 323 326 325 319 318 329 356 347 333 332 329 330 326 324 319 320 320 318 320 321 322 322 322
324 323 322 322 321 321 321 320 320 320 320 320 319 320 320 320 319 319 319 319 320 320 320 322 324 326 323 312 328 329 329 332 333 334 332 331 327 326 322 320 319 322 320 321 322 322 323
325 324 323 322 321 320 320 320 320 319 319 319 319 319 320 320 319 318 318 318 319 319 320 322 325 327 319 318 327 328 327 328 334 334 330 332 331 324 324 320 323 321 317 320 321 321 319
324 324 324 323 323 322 320 320 319 319 319 319 318 318 319 319 318 317 317 317 318 319 321 323 326 325 315 325 327 325 327 328 334 334 332 332 331 325 323 325 320 317 319 313 319 318 322
324 324 324 323 323 322 321 319 319 318 319 318 319 318 319 318 317 317 317 317 318 321 323 325 324 321 313 328 319 324 325 325 330 331 331 331 328 323 322 317 314 316 310 312 314 320 317
324 324 323 323 322 322 321 319 318 318 319 318 318 317 318 318 316 315 316 316 320 321 325 327 324 318 319 314 319 320 325 327 327 327 325 324 323 317 318 315 307 311 312 313 312 317 316
324 324 323 323 323 322 321 320 318 318 318 318 317 317 317 317 315 315 315 320 317 315 321 313 313 314 316 319 321 318 325 325 326 323 316 321 315 311 315 317 317 316 312 310 315 318 314
323 323 322 322 322 321 320 320 319 317 317 318 317 317 316 316 315 315 316 320 322 322 314 318 316 315 319 320 314 319 326 319 319 315 318 316 311 317 319 318 315 313 311 311 315 317 315
323 322 322 321 321 321 320 319 319 318 317 316 317 316 316 315 315 313 318 319 327 327 316 317 316 314 315 318 314 316 323 320 317 315 315 313 315 318 317 315 312 312 311 311 311 315 316
322 321 321 321 321 320 320 319 318 317 317 316 316 316 315 314 310 320 316 323 325 327 311 311 310 313 316 316 313 323 323 320 318 314 315 315 319 316 315 313 314 309 315 313 310 309 305
323 321 321 321 321 320 319 318 318 317 316 315 315 315 314 313 317 321 323 326 327 324 301 311 311 322 318 313 316 318 323 320 314 314 315 312 314 314 312 312 315 312 316 313 312 309 309
324 322 321 321 321 320 319 318 317 317 316 315 315 314 313 317 317 323 329 328 324 308 301 308 314 312 312 314 314 317 317 320 320 315 315 314 319 317 314 316 316 316 313 312 312 309 303
324 323 321 321 320 319 318 318 317 316 316 314 313 311 312 322 322 327 327 323 307 302 313 309 310 312 311 311 311 312 311 310 309 306 307 311 313 316 316 312 316 313 309 303 302 301 302
324 323 321 320 319 319 318 318 317 316 315 313 310 309 315 323 330 328 325 314 303 309 311 314 311 310 308 311 311 310 309 307 312 312 308 305 303 312 315 313 311 311 310 304 299 300 303
324 323 321 320 319 319 318 317 316 315 314 312 309 326 324 326 326 328 319 306 308 312 314 311 311 307 308 310 311 309 309 308 311 314 307 307 306 315 315 316 315 311 309 315 307 309 305
323 323 322 320 319 319 318 317 316 315 314 311 319 329 328 328 327 324 314 304 311 318 317 314 307 310 306 309 308 308 308 312 311 315 316 312 307 314 315 317 317 315 318 309 309 303 301
323 322 322 320 319 319 318 317 316 315 313 311 322 323 326 328 327 318 307 310 314 320 320 315 311 310 311 309 310 309 309 312 314 314 315 313 313 310 317 313 312 313 311 312 311 309 300
323 322 322 320 319 319 319 318 315 313 310 316 323 318 326 326 313 314 310 313 308 317 320 318 319 316 312 313 310 309 309 313 317 315 310 314 313 310 312 317 319 317 314 314 308 305 310
323 322 322 321 319 319 319 317 315 313 311 315 319 325 325 323 308 309 314 314 316 315 317 316 315 317 318 313 310 312 313 317 317 315 312 314 310 307 308 315 317 314 315 315 314 313 309
323 323 323 321 319 319 319 317 315 313 312 315 319 319 318 318 318 314 313 312 313 317 317 319 318 319 316 315 315 312 313 316 317 316 329 321 312 310 307 309 316 313 314 315 313 307 307
323 323 323 322 319 320 319 317 315 313 312 315 321 320 323 313 312 315 317 315 312 311 316 318 316 318 317 314 313 312 315 316 317 321 319 316 310 313 315 314 315 313 314 312 310 311 307
322 323 323 322 320 320 319 317 316 313 311 318 320 321 320 321 316 314 311 313 312 312 315 313 316 318 318 316 316 312 315 316 315 318 316 317 312 315 312 313 314 311 313 313 313 313 312
322 322 323 322 320 320 320 317 317 314 312 322 327 326 322 317 320 312 312 313 314 316 318 320 318 318 318 319 321 322 322 323 321 316 315 315 312 313 308 313 311 307 313 314 315 315 313
321 322 322 322 320 320 319 317 317 315 313 317 321 324 319 317 320 318 315 315 314 316 315 323 322 323 323 329 325 324 322 320 322 317 318 316 319 317 308 311 302 314 320 318 317 317 318
320 321 322 322 320 320 319 317 316 316 315 315 320 322 320 316 321 319 320 319 319 322 321 323 324 329 330 326 319 314 313 311 315 318 319 321 317 313 306 302 306 314 316 314 315 314 318
320 320 321 321 319 320 319 316 316 316 315 315 321 327 322 316 317 321 321 319 317 318 320 323 328 330 327 321 317 312 308 314 313 316 321 320 319 312 309 303 299 311 319 321 320 308 322
319 319 320 320 319 320 319 316 316 315 315 314 319 325 322 317 322 323 319 319 324 323 321 322 324 323 326 318 314 312 311 314 310 309 309 312 313 310 311 308 310 318 321 323 308 317 327
318 319 319 319 319 319 317 316 315 315 314 314 320 330 323 318 321 325 324 321 323 324 319 323 322 322 320 315 313 310 311 313 310 313 309 306 306 309 312 308 306 324 323 315 327 330 330
318 318 318 318 319 319 316 315 315 314 314 314 317 329 327 319 318 324 325 326 326 325 322 325 319 324 324 318 318 313 311 311 313 306 314 304 313 313 314 315 327 326 325 331 331 330 332
Wind_Speed
15 16 16 16 16 15 15 15 14 14 15 15 16 16 15 16 17 15 15 14 13 13 14 15 16 16 11 11 19 12 10 8 9 11 14 16 18 15 11 2 5 8 1 7 8 7 3
16 16 17 17 16 16 16 15 15 15 15 15 16 16 15 15 16 15 14 14 13 14 14 14 14 17 7 16 14 13 10 11 13 15 17 17 14 12 12 1 5 5 5 6 4 2 1
15 15 15 14 14 16 16 16 16 15 16 15 17 16 16 15 16 15 14 13 13 14 15 14 12 8 11 18 7 5 8 12 14 15 16 14 15 9 14 10 4 5 12 9 10 3 2
14 15 15 15 15 15 17 17 16 16 15 16 17 17 17 16 16 15 14 13 13 14 14 14 11 9 10 18 20 12 12 14 15 13 15 14 5 12 15 14 5 11 14 9 8 3 6
14 15 15 15 16 16 16 17 17 17 15 17 16 18 17 16 17 14 13 13 15 14 13 12 8 10 16 7 15 13 14 14 13 13 11 7 7 14 19 13 13 12 9 4 3 8 2
14 14 15 16 16 16 16 18 18 17 15 18 16 18 17 16 15 14 14 12 7 10 9 10 11 9 20 15 15 18 18 17 14 14 12 11 10 14 16 14 7 2 16 9 3 6 2
14 14 15 16 16 16 16 16 18 18 17 16 17 17 16 16 16 13 13 6 6 8 15 14 17 15 8 19 13 19 18 16 16 13 15 15 13 16 19 15 7 2 8 8 7 8 3
13 14 15 15 16 16 17 17 17 19 19 17 16 17 17 15 14 11 8 8 10 10 7 24 21 20 15 4 8 13 16 14 15 16 16 16 15 20 17 4 5 7 9 13 8 8 6
13 14 14 15 16 16 17 17 18 17 19 19 17 17 16 15 13 7 13 17 11 12 9 16 22 14 12 12 14 19 18 18 15 16 17 18 19 15 15 1 7 9 14 15 6 1 8
13 13 14 14 15 16 17 18 18 19 18 20 18 17 16 14 6 10 14 17 16 10 8 17 20 15 17 14 16 19 18 18 14 17 18 17 18 12 2 10 10 16 6 10 3 9 9
13 13 14 14 15 16 17 18 18 19 20 20 19 18 14 6 14 9 5 8 4 6 8 19 19 10 13 18 17 17 17 18 17 14 15 11 17 8 11 12 12 15 6 9 12 12 15
13 13 14 15 15 17 17 18 19 19 20 20 19 17 15 7 8 16 15 3 7 8 8 15 13 15 17 20 14 17 18 19 14 11 13 16 12 10 9 11 11 6 12 13 15 13 13
13 13 14 15 15 17 18 19 20 21 22 22 21 15 8 11 7 10 10 7 8 11 20 19 19 19 19 13 14 14 17 19 15 11 14 13 14 9 12 14 13 9 14 12 11 11 2
12 13 13 14 15 16 18 20 21 22 24 25 25 19 12 10 9 8 7 9 10 16 13 18 17 19 18 17 16 15 17 15 19 17 11 12 13 16 12 13 13 15 16 10 7 7 11
12 13 13 13 15 15 17 20 21 23 25 26 33 6 6 9 14 10 9 12 10 10 11 15 18 18 17 16 10 14 17 18 18 18 17 11 12 15 17 13 13 16 15 18 11 20 6
12 12 13 13 14 15 17 19 21 24 27 23 8 9 11 11 13 8 9 17 20 21 3 11 14 14 15 18 12 16 18 17 17 18 17 19 9 15 14 12 11 15 13 15 8 5 5
12 12 13 12 13 15 17 18 20 24 30 28 6 8 11 11 10 8 11 17 23 4 7 8 11 11 15 13 15 12 13 13 18 16 14 17 4 11 20 9 14 10 12 14 7 7 7
12 12 12 12 12 14 16 17 18 20 29 12 7 7 9 11 9 9 14 23 12 8 4 14 10 14 12 12 13 15 14 16 15 16 15 17 11 18 16 14 10 13 6 11 8 9 11
12 12 12 12 12 13 14 15 16 15 15 9 7 4 7 10 10 12 18 24 13 11 15 12 9 11 13 11 9 12 12 10 12 15 12 14 12 3 10 13 5 9 13 2 7 10 6
12 12 12 12 11 12 13 14 15 13 11 7 7 5 6 8 13 18 15 20 9 12 18 12 8 12 10 13 9 10 12 8 6 11 6 5 14 12 10 3 20 14 10 4 8 8 12
13 12 12 11 10 11 11 13 15 15 10 6 6 5 8 8 13 16 19 13 18 17 15 13 9 13 10 10 12 13 16 15 13 8 6 9 14 4 19 25 25 17 16 8 4 5 6
12 12 12 11 10 10 10 12 14 17 21 6 6 4 6 19 15 18 14 12 12 16 15 15 11 15 15 15 13 14 13 11 13 14 14 14 12 3 4 2 11 16 18 13 8 10 8
13 12 12 11 10 10 9 10 13 15 14 6 9 9 9 13 18 12 14 16 12 16 14 17 15 16 17 17 16 8 7 13 11 17 14 17 14 12 1 9 5 18 21 12 9 3 3
14 12 12 11 10 10 8 9 10 11 8 7 9 10 8 13 15 8 16 18 18 18 15 14 15 6 18 22 3 12 16 18 15 12 13 13 9 5 5 10 10 6 12 16 21 10 8
14 13 12 11 10 10 8 8 9 10 9 8 9 8 8 10 13 18 14 6 5 3 8 12 5 7 5 12 7 10 3 12 17 26 33 5 5 6 5 5 15 31 6 7 24 5 5
14 13 12 12 10 9 8 8 8 9 11 8 9 10 7 7 3 16 19 2 7 11 10 16 3 7 6 9 10 6 7 4 2 4 5 19 10 4 4 6 4 15 25 3 7 2 11
14 13 12 12 10 10 8 7 7 9 9 7 9 13 6 9 15 8 11 10 13 9 10 14 9 9 6 5 9 6 6 5 7 8 8 6 10 9 9 6 9 5 15 8 4 6 9
14 13 12 11 10 10 8 7 6 8 9 6 10 7 6 8 15 15 11 9 12 9 8 13 6 6 6 8 9 6 10 5 6 4 4 4 6 8 6 10 1 10 11 4 5 5 9
13 13 11 11 10 10 8 7 6 7 8 6 8 3 5 6 11 18 17 16 10 2 7 4 8 13 5 5 7 8 8 0 13 4 9 9 18 12 6 6 3 3 4 7 9 5 3
Wind_Direction
15 13 10 7 5 2 358 355 352 349 346 342 342 339 331 329 326 319 315 309 307 307 308 309 312 321 314 238 249 150 173 182 204 219 243 256 266 276 296 136 116 268 268 192 160 180 150
9 11 12 9 5 1 358 354 350 347 344 340 338 333 329 326 323 317 312 303 302 303 303 303 310 316 250 257 260 147 213 180 223 213 238 250 272 349 296 319 278 21 277 288 202 252 323
2 4 6 2 4 4 358 354 349 345 342 337 337 332 326 323 320 315 307 301 296 296 295 296 306 296 264 248 296 295 216 234 219 237 240 242 264 280 271 272 171 223 267 266 204 108 320
358 358 358 354 353 352 354 352 348 344 338 336 335 333 325 324 322 314 306 295 289 286 286 284 290 269 261 256 244 252 252 235 229 235 260 290 235 279 281 286 176 237 248 254 112 67 129
354 353 353 352 350 349 347 349 347 343 335 337 326 333 325 325 324 318 304 295 285 280 270 274 259 222 257 197 224 240 227 230 214 230 235 292 279 258 254 248 225 213 214 304 166 133 288
351 350 349 347 347 346 345 347 346 343 334 335 328 332 325 325 322 317 308 292 314 290 227 244 255 250 243 219 208 209 221 232 218 221 219 220 234 240 242 238 265 51 289 153 195 119 22
347 347 345 344 342 342 342 340 344 341 337 330 330 324 326 323 322 322 309 205 200 199 224 215 175 222 134 218 186 200 205 212 235 216 219 209 226 230 239 229 104 297 328 316 263 114 273
343 342 341 339 338 338 338 336 333 341 337 330 326 323 323 321 319 319 284 243 333 336 231 230 263 219 278 116 171 203 193 202 213 221 215 222 222 239 248 89 321 262 243 262 235 147 195
338 337 337 335 335 335 335 334 331 331 336 332 320 323 318 320 323 271 236 243 319 325 271 205 212 231 223 235 211 199 191 204 209 226 211 235 209 234 254 161 226 242 256 264 355 137 221
333 333 332 332 332 332 332 332 332 337 332 329 326 321 320 320 288 221 224 245 257 285 278 159 196 216 215 197 232 193 191 203 215 222 231 224 258 192 239 241 245 250 270 356 305 260 269
327 328 329 330 331 330 330 329 330 329 332 326 322 320 311 285 322 251 355 224 239 258 271 144 178 190 183 208 194 188 182 217 237 219 241 204 249 172 242 250 225 266 355 310 297 274 260
323 324 327 329 329 329 328 327 326 324 322 322 320 317 314 212 223 257 305 223 236 234 229 169 143 172 172 219 171 176 179 225 238 239 246 266 204 265 235 243 255 308 286 277 248 240 256
317 320 323 326 327 327 326 326 326 325 322 319 315 310 270 307 250 214 234 239 225 247 137 147 164 177 181 203 169 167 189 203 219 225 218 225 263 215 261 238 234 237 250 257 238 225 332
311 316 318 322 324 326 326 327 326 325 323 320 313 310 207 245 299 267 244 224 249 235 201 149 167 174 191 191 169 182 188 202 221 230 201 206 213 235 195 240 257 226 247 267 285 291 220
306 312 315 319 322 325 327 327 327 327 325 326 311 192 235 226 222 272 239 224 238 270 150 162 171 180 199 193 178 182 204 212 208 234 251 211 213 207 199 211 219 250 250 267 270 256 224
298 306 310 316 320 324 326 328 330 329 327 331 308 276 240 181 175 222 238 246 268 299 27 169 173 189 200 182 218 183 197 217 229 209 253 278 284 153 190 217 239 269 285 296 266 6 64
288 301 305 310 317 321 322 329 332 333 331 327 250 246 123 157 179 227 236 240 244 7 329 317 213 176 230 191 193 216 217 218 211 229 228 257 280 329 303 196 236 207 241 259 313 127 105
281 293 297 304 311 316 321 328 334 339 336 334 285 270 135 169 200 227 235 246 285 277 177 281 312 303 213 219 194 230 210 220 198 227 203 240 272 178 244 219 221 278 357 303 286 39 220
278 281 287 295 304 313 320 326 332 342 4 319 282 291 171 201 222 224 232 256 258 233 255 219 252 277 293 246 194 220 216 231 174 215 210 227 255 220 349 317 200 255 273 207 212 251 278
273 272 276 286 298 310 318 322 325 334 345 311 278 254 148 216 244 261 273 232 248 240 275 271 276 257 232 270 192 223 233 125 160 234 9 282 268 275 151 240 304 304 318 326 315 317 350
267 270 278 285 290 304 315 321 322 329 338 291 246 344 25 253 223 241 251 263 226 241 210 251 249 269 274 255 260 196 248 167 178 188 243 239 248 284 140 179 224 274 271 280 251 309 308
262 267 269 275 286 299 312 321 325 332 328 238 296 42 296 288 221 221 251 276 263 224 242 210 240 248 235 257 242 242 225 218 184 184 219 224 241 135 75 138 314 227 248 249 271 263 256
263 265 264 265 275 292 310 322 327 340 335 293 2 345 274 284 290 210 225 225 254 273 239 248 223 240 254 229 235 345 64 28 323 194 199 226 231 236 91 165 29 307 324 292 282 70 3
259 257 258 257 267 281 299 316 324 338 357 311 296 312 278 279 281 292 242 219 221 233 256 297 247 306 42 312 158 55 43 20 17 15 316 234 94 48 45 21 291 315 34 340 297 315 284
251 251 255 245 253 268 282 304 316 323 325 298 302 283 295 290 312 326 277 278 296 245 279 277 31 3 268 284 245 163 123 38 283 222 225 136 82 113 126 106 307 283 327 206 260 347 310
251 245 247 238 240 252 266 289 305 317 331 299 286 287 273 293 90 305 310 170 252 226 244 255 47 273 305 259 247 205 252 71 72 306 347 345 130 201 128 139 220 263 249 83 45 286 345
249 243 239 229 232 238 252 276 295 311 325 308 292 299 278 278 256 315 351 337 332 329 275 194 175 211 223 240 263 269 76 18 23 9 333 10 338 223 187 190 211 202 310 87 250 57 30
243 239 231 218 223 227 242 265 284 306 321 315 294 270 285 298 297 294 321 327 332 12 15 335 191 239 201 243 256 87 38 324 33 219 143 22 6 268 234 272 129 351 354 338 78 92 30
241 224 214 216 214 216 232 253 272 300 309 321 273 179 261 264 297 320 296 289 288 11 314 355 300 297 1 213 73 62 137 215 223 243 155 179 198 254 348 21 166 127 48 31 16 64 96